Hourly Data Report for July 26, 2021

PRINCE RUPERT
BRITISH COLUMBIA
Current Station Operator: NAVCAN

54°17'10.000" N
130°26'41.000" W
35.40 m
1066482
71022
YPR

Download Data

Hourly Data (July 2021)
Hourly Data Report for July 26, 2021
TIME
LST
Temp Definition
°C
Dew Point Definition
°C
Rel Hum Definition
%
Precip. Amount Definition
mm

Wind Dir Definition
10's deg

Wind Spd Definition
km/h
Visibility Definition
km
Stn Press Definition
kPa
Hmdx Definition


Wind Chill Definition


Weather Definition


00:00 13.4 12.8 96 0.0 6 9 16.1 101.07     Rain
01:00 13.1 12.6 97 0.2 16 5 16.1 101.05     LegendNANA
02:00 12.8 12.3 97 0.0 18 4 4.8 101.02     Fog
03:00 13.0 12.5 97 0.0 16 4 16.1 101.01     LegendNANA
04:00 13.0 12.6 97 0.0   0 16.1 100.96     LegendNANA
05:00 12.9 12.4 97 0.0   0 4.8 100.95     Rain, Fog
06:00 13.3 13.0 98 0.2 12 5 14.5 100.94     Rain
07:00 13.5 12.9 96 1.2 14 13 11.3 100.95     LegendNANA
08:00 13.9 12.6 92 0.2 15 17 16.1 100.96     LegendNANA
09:00 13.4 12.5 94 0.0 15 13 16.1 100.97     Rain
10:00 14.3 13.5 95 0.8 15 11 16.1 100.98     LegendNANA
11:00 13.8 13.2 96 3.0 16 9 16.1 101.02     Rain
12:00 13.6 11.8 89 0.2 18 11 16.1 101.07     LegendNANA
13:00 15.2 11.9 81 0.0 14 17 16.1 101.11     LegendNANA
14:00 13.1 11.8 92 0.0 17 11 8.1 101.19     Rain, Fog
15:00 12.6 12.0 96 0.5 23 11 4.8 101.23     Rain, Fog
16:00 12.8 11.9 94 0.2 23 8 16.1 101.24     LegendNANA
17:00 13.6 12.4 92 0.0 LegendMM 4 16.1 101.25     LegendNANA
18:00 13.8 12.2 90 0.0 15 8 16.1 101.26     LegendNANA
19:00 13.6 12.2 91 0.0 12 8 16.1 101.27     LegendNANA
20:00 13.4 12.3 93 0.0 8 5 16.1 101.30     Rain
21:00 13.0 12.1 94 0.8 11 9 16.1 101.33     Rain
22:00 12.8 11.9 94 0.0 9 8 16.1 101.36     LegendNANA
23:00 13.0 11.7 92 0.0 12 8 16.1 101.39     LegendNANA

Notes on Data Quality.

Legend

  • E = Estimated
  • M = Missing
  • NA = Not Available*
  • [empty] = Indicates an unobserved value
Date modified: